Overview Statistics Trail Chart Weather Telemetry Raw packets
 

This is the latest recevied weather packets stored in our database for station/object KV4OP. If no packets are shown the sender has not sent any weather packets the latest 10 day(s).

<< 77 78 79 80 81 82 83 >>
Time Temp. Humidity Pressure Rain* Wind** Luminosity Snow
1788104139 31.11° C 63% 1019 hPa 0 mm - - -
1788103839 31.11° C 64% 1019.1 hPa 0 mm - - -
1788103542 31.67° C 60% 1019.3 hPa 0 mm - - -
1788103249 31.11° C 63% 1019.4 hPa 0 mm - - -
1788102940 30.56° C 65% 1019.4 hPa 0 mm - - -
1788102640 30.56° C 65% 1019.4 hPa 0 mm - - -
1788102339 30° C 66% 1019.4 hPa 0 mm - - -
1788102049 30° C 68% 1019.5 hPa 0 mm - - -
1788101739 30° C 68% 1019.5 hPa 0 mm - - -
1788101439 29.44° C 69% 1019.4 hPa 0 mm - - -
1788101139 29.44° C 68% 1019.4 hPa 0 mm - - -
1788100848 30° C 68% 1019.4 hPa 0 mm - - -
1788100539 29.44° C 69% 1019.2 hPa 0 mm - - -
1788100240 30° C 68% 1019.4 hPa 0 mm - - -
1788099940 29.44° C 69% 1019.4 hPa 0 mm - - -
1788099648 29.44° C 70% 1019.4 hPa 0 mm - - -
1788099340 29.44° C 70% 1019.4 hPa 0 mm - - -
1788099039 28.89° C 71% 1019.4 hPa 0 mm - - -
1788098740 28.89° C 72% 1019.5 hPa 0 mm - - -
1788098449 28.89° C 73% 1019.5 hPa 0 mm - - -
1788098140 28.33° C 75% 1019.4 hPa 0 mm - - -
1788097840 27.78° C 75% 1019.5 hPa 0 mm - - -
1788097540 27.78° C 76% 1019.5 hPa 0 mm - - -
1788097249 27.22° C 76% 1019.5 hPa 0 mm - - -
1788096940 27.22° C 77% 1019.5 hPa 0 mm - - -

* Rain latest hour (hover to see other rain measurements)
** Current wind speed in m/s (hover to see current wind gust speed)